"Pseudo-MPEC" for CEJ7702

Created 2026 Apr 16 22:35:06 UT using Find_Orb

Click here for an explanation of pseudo-MPECs

 
 Astrometry: 
     CEJ7702*1C2026 04 15.43046616 49 22.105+28 32 14.68   ~4FDZ 21.55GVNEOCPG96
     CEJ7702 1C2026 04 15.43570416 49 23.466+28 32 51.36   ~4FDZ 21.28GVNEOCPG96
     CEJ7702 1C2026 04 15.44096516 49 24.895+28 33 27.76   ~4FDZ 21.60GVNEOCPG96
     CEJ7702 1C2026 04 15.44621216 49 26.263+28 34 02.93   ~4FDZ 21.71GVNEOCPG96
     CEJ7702*1C2026 04 15.45654116 49 28.952+28 35 14.78   ~4FDZ 21.65GVNEOCPV06
     CEJ7702 1C2026 04 15.45832716 49 29.413+28 35 27.06   ~4FDZ 21.81GVNEOCPV06
     CEJ7702 1C2026 04 15.46011316 49 29.874+28 35 38.90   ~4FDZ 21.55GVNEOCPV06
     CEJ7702 1C2026 04 15.46189916 49 30.349+28 35 51.18   ~4FDZ 21.31GVNEOCPV06
     CEJ7702 1C2026 04 15.48522816 49 36.466+28 38 31.13   ~4FDZ 21.57GVNEOCPV06
     CEJ7702 1C2026 04 15.48701616 49 36.941+28 38 43.37   ~4FDZ       VNEOCPV06
     CEJ7702 1C2026 04 15.48880316 49 37.398+28 38 55.25   ~4FDZ       VNEOCPV06
     CEJ7702 1C2026 04 15.49059016 49 37.873+28 39 07.60   ~4FDZ 21.65GVNEOCPV06
     CEJ7702 1C2026 04 16.30475216 53 43.123+30 12 31.07   ~4G7o 21.50GVNEOCPV06
     CEJ7702 1C2026 04 16.30698616 53 43.746+30 12 46.94   ~4G7o 21.63GVNEOCPV06
     CEJ7702 1C2026 04 16.30921816 53 44.387+30 13 02.50   ~4G7o 21.18GVNEOCPV06
     CEJ7702 1C2026 04 16.31145216 53 45.002+30 13 18.34   ~4G7o 21.79GVNEOCPV06
     CEJ7702  C2026 04 16.45451416 54 23.885+30 29 53.34   ~4GBo 21.0 GWNEOCPH01
     CEJ7702  C2026 04 16.45780316 54 24.778+30 30 15.94   ~4GBo 21.5 GWNEOCPH01
     CEJ7702  C2026 04 16.46936316 54 27.931+30 31 35.28   ~4GBo 21.1 GWNEOCPH01
     CEJ7702  C2026 04 16.47517716 54 29.508+30 32 14.97   ~4GBo 21.3 GWNEOCPH01

Station data:
(G96) Mt. Lemmon Survey  (N32.442729 W110.788720)  US/Arizona.  Observer E.
   J. Christensen. Measurers T. Beuden, V. F. Carvajal, D. Fay, J. B.
   Fazekas, D. C. Fuls, A. R. Gibbs, A. D. Grauer, H. Gröller, J. K. Hogan,
   R. A. Kowalski, S. M. Larson, G. J. Leonard, D. Rankin, R. L. Seaman, F.
   C. Shelly, K. W. Wierzchoś. 1.5-m reflector + 10K CCD.
(H01) Magdalena Ridge Observatory, Socorro  (N33.984833 W107.189333)  US/New
   Mexico.  Observers W. H. Ryan, E. V. Ryan. Measurer W. H. Ryan. 2.4-m
   f/8.9 reflector + CCD.
(V06) Catalina Sky Survey-Kuiper  (N32.416871 W110.732550)  US/Arizona.
   Measurers T. Beuden, V. F. Carvajal, D. Fay, J. B. Fazekas, D. C. Fuls, A.
   R. Gibbs, A. D. Grauer, H. Gröller, J. K. Hogan, R. A. Kowalski, S. M.
   Larson, G. J. Leonard, D. Rankin, R. L. Seaman, F. C. Shelly, K. W.
   Wierzchoś. 1.55-m reflector + CCD.

Orbital elements:  CEJ7702
   Perihelion 2026 Jul 24.231789 +/- 0.174 TT =  5:33:46.5 (JD 2461245.731789)
Epoch 2026 Apr 16.0 TT = JDT 2461146.5   Earth MOID: 0.1122      AutoNEOCP
M 265.197608190 +/- 0.39            (J2000 ecliptic)
n   0.955363121 +/- 0.00242         Peri.  145.711440 +/- 0.7
a   1.020995279 +/- 0.00172         Node   177.295312 +/- 0.26
e   0.17754130 +/- 0.00167          Incl.    9.945515 +/- 0.10
P   1.032/376.813d         H 24.16  G  0.15   U  8.7
q 0.839726442 +/- 0.00286    Q 1.202264116 +/- 0.00154
From 20 observations 2026 Apr. 15-16 (25.1 hr); mean residual 0".20
Residuals in arcseconds: 
260415 G96  .22-  .19-    260415 V06  .04+  .12-    260416 V06  .13+  .03-    
260415 G96  .35-  .36+    260415 V06  .04-  .06-    260416 V06  .01-  .08+    
260415 G96  .34+  .49+    260415 V06  .02+  .05-    260416 H01  .02+  .05+    
260415 G96  .27+  .48-    260415 V06  .16-  .39-    260416 H01  .01-  .04+    
260415 V06  .13+  .29+    260415 V06  .10-  .26-    260416 H01  .05+  .01+    
260415 V06  .04+  .30+    260416 V06  .03-  .01+    260416 H01  .07-  .16-    
260415 V06  .05-  .13-    260416 V06  .08-  .14+    

Ephemerides (geocentric):
Date (UTC) HH   RA             Dec           delta  r     elong  mag " sig PA
---- --------  ------------   ------------  ------ ------ -----  --- --------
2026 04 16 23  16 56 57.430   +31 27 52.20  .12161 1.0641 116.8 21.8 .431  18
2026 04 17 00  16 57 10.203   +31 32 39.46  .12159 1.0640 116.8 21.8 .474  18
2026 04 17 01  16 57 22.996   +31 37 26.69  .12156 1.0639 116.7 21.8 .520  19
2026 04 17 02  16 57 35.808   +31 42 13.91  .12153 1.0638 116.6 21.8 .567  20
2026 04 17 03  16 57 48.639   +31 47 01.10  .12151 1.0637 116.6 21.8 .616  20
2026 04 17 04  16 58 01.489   +31 51 48.26  .12148 1.0635 116.5 21.8 .667  21
2026 04 17 05  16 58 14.359   +31 56 35.40  .12145 1.0634 116.4 21.8 .720  21
2026 04 17 06  16 58 27.247   +32 01 22.50  .12143 1.0633 116.4 21.8 .775  22
2026 04 17 07  16 58 40.156   +32 06 09.57  .12140 1.0632 116.3 21.8 .831  22
2026 04 17 08  16 58 53.083   +32 10 56.61  .12138 1.0631 116.3 21.8 .889  22
2026 04 17 09  16 59 06.030   +32 15 43.62  .12135 1.0630 116.2 21.8 .950  23
2026 04 17 10  16 59 18.997   +32 20 30.58  .12133 1.0628 116.1 21.8 1.01  23
2026 04 17 11  16 59 31.983   +32 25 17.51  .12131 1.0627 116.1 21.8 1.08  23
2026 04 17 12  16 59 44.989   +32 30 04.40  .12128 1.0626 116.0 21.8 1.14  23
2026 04 17 13  16 59 58.015   +32 34 51.24  .12126 1.0625 115.9 21.8 1.21  24
2026 04 17 14  17 00 11.060   +32 39 38.04  .12124 1.0624 115.9 21.8 1.28  24
2026 04 17 15  17 00 24.126   +32 44 24.80  .12121 1.0623 115.8 21.8 1.35  24
2026 04 17 16  17 00 37.211   +32 49 11.50  .12119 1.0621 115.7 21.8 1.42  24
2026 04 17 17  17 00 50.316   +32 53 58.16  .12117 1.0620 115.7 21.8 1.50  25
2026 04 17 18  17 01 03.441   +32 58 44.76  .12115 1.0619 115.6 21.8 1.57  25
2026 04 17 19  17 01 16.586   +33 03 31.31  .12112 1.0618 115.5 21.8 1.65  25
2026 04 17 20  17 01 29.751   +33 08 17.81  .12110 1.0617 115.5 21.8 1.73  25
2026 04 17 21  17 01 42.937   +33 13 04.25  .12108 1.0615 115.4 21.8 1.81  25
2026 04 17 22  17 01 56.142   +33 17 50.63  .12106 1.0614 115.3 21.8 1.90  25
2026 04 17 23  17 02 09.368   +33 22 36.95  .12104 1.0613 115.3 21.8 1.98  25
2026 04 18 00  17 02 22.615   +33 27 23.21  .12102 1.0612 115.2 21.8 2.07  26
2026 04 18 01  17 02 35.881   +33 32 09.41  .12100 1.0611 115.1 21.8 2.16  26
2026 04 18 02  17 02 49.168   +33 36 55.54  .12098 1.0610 115.1 21.8 2.25  26
2026 04 18 03  17 03 02.476   +33 41 41.60  .12096 1.0608 115.0 21.8 2.35  26
2026 04 18 04  17 03 15.804   +33 46 27.59  .12094 1.0607 114.9 21.8 2.44  26
2026 04 18 05  17 03 29.153   +33 51 13.51  .12092 1.0606 114.9 21.8 2.54  26
2026 04 18 06  17 03 42.522   +33 55 59.36  .12091 1.0605 114.8 21.8 2.64  26
2026 04 18 07  17 03 55.912   +34 00 45.14  .12089 1.0604 114.7 21.8 2.74  26
2026 04 18 08  17 04 09.323   +34 05 30.84  .12087 1.0602 114.7 21.8 2.84  27
2026 04 18 09  17 04 22.755   +34 10 16.46  .12085 1.0601 114.6 21.8 2.94  27
2026 04 18 10  17 04 36.208   +34 15 02.00  .12084 1.0600 114.5 21.8 3.05  27
2026 04 18 11  17 04 49.682   +34 19 47.46  .12082 1.0599 114.5 21.8 3.16  27
2026 04 18 12  17 05 03.176   +34 24 32.83  .12080 1.0598 114.4 21.8 3.27  27
2026 04 18 13  17 05 16.692   +34 29 18.12  .12079 1.0596 114.3 21.8 3.38  27
2026 04 18 14  17 05 30.229   +34 34 03.33  .12077 1.0595 114.3 21.8 3.49  27
2026 04 18 15  17 05 43.787   +34 38 48.44  .12075 1.0594 114.2 21.8 3.61  27
2026 04 18 16  17 05 57.367   +34 43 33.47  .12074 1.0593 114.1 21.8 3.72  27
2026 04 18 17  17 06 10.968   +34 48 18.40  .12072 1.0592 114.1 21.8 3.84  27
2026 04 18 18  17 06 24.590   +34 53 03.24  .12071 1.0591 114.0 21.8 3.96  27
2026 04 18 19  17 06 38.233   +34 57 47.98  .12069 1.0589 113.9 21.8 4.09  28
2026 04 18 20  17 06 51.899   +35 02 32.63  .12068 1.0588 113.9 21.8 4.21  28
2026 04 18 21  17 07 05.585   +35 07 17.17  .12067 1.0587 113.8 21.8 4.34  28
2026 04 18 22  17 07 19.294   +35 12 01.62  .12065 1.0586 113.7 21.8 4.46  28